Regional Weather Roundup
Issued by NWS Midland/Odessa, TX

Skip options and go directly to product.
Home | Oldest Version | Next Version | Current Version | All | Text Only | Save Text | Print | Product List | Glossary On

Skip product version selection by date and time.   
227
ASUS44 KMAF 230110
RWRMAF
MIDLAND AREA WEATHER ROUNDUP
NATIONAL WEATHER SERVICE MIDLAND TX
700 PM CST WED FEB 22 2017

...IN SOUTHWEST TEXAS AND SOUTHEAST NEW MEXICO...

CITY           SKY/WX    TMP DP  RH WIND       PRES   REMARKS
ALPINE         CLEAR     69  19  15 SW8       29.99S
ANDREWS        FAIR      72  28  20 S5        29.83F
ARTESIA        CLEAR     73  27  17 SW15      29.81R
BIG SPRING     CLEAR     70  34  25 S8        29.83S
CARLSBAD       CLEAR     74  19  12 W8        29.80F
DRYDEN           N/A     79  28  15 SW12      29.80S
FORT STOCKTON  CLEAR     77  24  14 CALM      29.83F
GUAD PASS      CLEAR     67  24  19 W17       29.97S
HOBBS          CLEAR     70  16  12 SW8       29.83F
MARFA          CLEAR     68  19  15 S9        29.98S
MIDLAND AIRPK  CLEAR     79  24  13 S3        29.82F
MIDLAND INTL   CLEAR     78  27  15 SW5       29.81F
ODESSA         CLEAR     77  23  13 SW7       29.83F
PECOS          CLEAR     77  28  16 SW8       29.80S
PRESIDIO       FAIR      83  22  11 CALM      29.85F
SEMINOLE       CLEAR     68  26  20 CALM      29.83F
SNYDER         CLEAR     75  35  23 S6        29.81R
WINK           CLEAR     77  23  13 SW6       29.79F
$$
...OTHER STATIONS IN TEXAS...

CITY           SKY/WX    TMP DP  RH WIND       PRES   REMARKS
ABILENE        CLEAR     76  39  26 S6        29.78S
AMARILLO       MOCLDY    71  30  21 W12       29.78S
AUSTIN         PTCLDY    70  49  47 S7        29.76F
BROWNSVILLE    NOT AVBL
CORPUS CHRISTI PTCLDY    72  52  49 SE12      29.80S
DALLAS FTW     PTCLDY    74  47  38 S9        29.72S
DEL RIO        CLEAR     81  39  22 E6        29.76F
EL PASO        PTCLDY    74  25  16 SW8       29.87F
HOUSTON INT    CLEAR     68  52  56 W3        29.79S
LUBBOCK        PTCLDY    70  31  23 SW9       29.79S
SAN ANGELO     CLEAR     75  35  23 SW5       29.80S
SAN ANTONIO    CLEAR     82  40  22 S5        29.79F
WACO           CLEAR     64  51  62 S9        29.76R
WICHITA FALLS  NOT AVBL
$$
...OTHER LOCATIONS IN NEW MEXICO...

CITY           SKY/WX    TMP DP  RH WIND       PRES   REMARKS
ALAMAGORDO     CLEAR     70  30  23 S6        29.89S
ALBUQUERQUE    CLOUDY    62  33  33 W14       29.87F
CANNON AFB     CLEAR     66  31  27 SW7       29.82S
CLOVIS         CLEAR     61  32  33 SW10      29.82F
HOLLOMAN AFB   CLEAR     72  28  19 SW14      29.90F
ROSWELL        CLEAR     77  22  13 W16         N/A
RUIDOSO        CLEAR     57  25  28 SW18      30.00F
SANTA FE       CLOUDY    52  32  46 N5        29.91F
TRUTH OR CONSE PTCLDY    70  28  21 SW13      29.88S
TUCUMCARI      CLOUDY    68  30  24 NW13      29.79F
$$

  • National Weather Service
  • Southern Region Headquarters
  • 819 Taylor Street, Room 10A06
  • Fort Worth, TX 76102
  • Page Author: NWS Fort Worth
  • Web Master: SR-SRH.Webmaster@noaa.gov
  •  
  • Page last modified: 30-Sep-2016 6:36 PM UTC
USA.gov is the U.S. government's official web portal to all federal, state and local government web resources and services.